Temp
4 4 4 4 3 4 4 4 8 8 7 8 10 11 12 10 11 8 10 10 13 14 14 13 12 12 14 12 11 10 12 12 11 11 13 12 12 12 13 11 12 13 12 12
4 3 4 4 3 3 3 5 7 7 6 9 10 11 10 10 10 10 10 11 11 12 12 11 13 12 11 10 11 12 10 11 11 12 10 10 10 11 12 13 12 11 11 13
2 3 3 3 4 3 3 4 7 6 4 8 9 12 11 11 8 10 10 11 11 10 11 12 12 11 10 9 10 8 9 11 12 13 12 12 10 11 12 12 11 12 12 13
-1 1 2 3 3 3 3 3 6 8 9 8 8 10 11 11 10 8 9 10 10 10 11 12 11 11 10 8 8 8 10 9 11 12 12 12 11 12 12 10 11 12 13 14
-1 -1 -0 1 2 3 3 3 3 5 7 9 9 8 9 10 11 10 8 9 12 10 11 13 13 12 11 11 9 9 9 10 10 9 11 12 10 11 12 12 12 12 13 14
-2 -2 -2 -1 0 1 2 3 3 3 7 8 8 10 9 10 10 11 10 11 10 11 11 11 12 10 11 12 9 9 9 9 9 10 10 10 10 11 11 12 13 12 12 14
-2 -2 -3 -2 -1 -0 -0 2 2 2 3 6 8 9 10 9 9 9 10 7 8 9 8 8 7 8 8 9 10 10 9 10 11 10 11 10 15 12 12 12 13 13 13 14
-3 -3 -3 -3 -2 -2 -1 0 1 1 3 5 7 8 8 7 7 7 7 8 7 7 7 8 8 7 7 8 8 8 9 10 10 10 11 13 13 10 10 10 13 13 13 14
-3 -3 -3 -3 -3 -2 -2 -1 -1 1 2 4 6 7 7 7 7 8 8 6 6 5 8 7 8 8 10 7 4 4 7 6 9 10 9 10 13 10 9 10 12 12 12 12
-4 -3 -3 -3 -3 -3 -3 -2 -2 -2 -1 2 6 7 7 7 7 7 7 4 3 4 6 7 7 9 10 9 6 3 4 5 6 8 9 11 13 9 8 11 12 10 10 10
-3 -3 -3 -3 -3 -3 -3 -3 -3 -3 -3 -1 0 2 3 4 5 4 4 3 3 3 5 6 7 8 10 9 10 6 6 5 6 7 8 8 11 8 10 11 9 10 9 9
-4 -3 -3 -4 -3 -3 -3 -4 -4 -3 -3 -2 -2 -1 -0 -0 1 1 0 2 4 4 5 6 7 6 6 8 9 6 7 9 8 9 9 9 9 9 9 8 9 9 9 8
-4 -4 -4 -4 -4 -3 -3 -3 -4 -4 -4 -3 -2 -1 -1 -0 -0 -0 0 0 1 1 2 3 3 4 7 7 7 8 5 4 6 7 10 8 7 8 8 8 8 7 7 7
-4 -4 -3 -4 -3 -3 -4 -4 -4 -4 -4 -4 -1 -1 -1 -0 -0 -0 0 -0 -0 -0 -0 0 2 2 6 6 6 7 6 5 6 7 9 8 7 7 7 7 6 6 6 7
-4 -4 -4 -3 -3 -3 -3 -3 -4 -4 -4 -3 -2 -1 -0 -1 -2 -1 -1 -1 -1 -1 -1 -0 2 2 3 3 3 4 6 6 6 6 9 6 6 6 5 5 5 5 5 6
-4 -4 -3 -3 -3 -3 -3 -3 -3 -4 -4 -3 -2 -1 -1 -1 -1 -0 -2 -2 -1 -2 -1 0 -0 0 1 2 3 6 6 5 5 5 5 4 4 5 4 4 4 4 4 4
-4 -4 -4 -3 -3 -3 -4 -3 -3 -4 -4 -3 -2 -1 -1 -1 -2 -1 -1 -1 -1 -1 -1 -1 0 -0 -0 2 3 0 1 2 1 1 3 4 3 2 2 3 2 3 3 3
-4 -4 -4 -3 -3 -3 -3 -3 -3 -3 -4 -4 -3 -2 -1 -2 -2 -1 -1 -1 -1 -1 -1 -1 0 -0 -0 1 -0 -1 -1 0 -0 -1 -0 -0 0 0 0 0 0 1 1 1
-4 -4 -3 -4 -4 -4 -4 -3 -3 -4 -4 -3 -3 -2 -0 -1 -1 -1 -2 -2 -0 -1 -0 0 -0 1 0 -2 -2 -2 -3 -3 -3 -2 -1 -1 -1 -2 -2 -1 -1 -1 -1 -1
-4 -4 -4 -3 -4 -3 -3 -4 -4 -4 -4 -4 -3 -2 -1 -1 0 1 -0 -1 0 1 1 -1 1 -2 -3 -4 -3 -3 -3 -3 -3 -2 -3 -3 -3 -3 -2 -2 -2 -2 -2 -2
-4 -4 -5 -4 -4 -3 -4 -4 -3 -3 -3 -3 -3 -4 -3 -3 -2 -1 0 0 0 0 1 1 0 -3 -4 -5 -4 -4 -4 -4 -4 -4 -4 -4 -4 -4 -3 -3 -3 -2 -2 -2
-4 -4 -4 -5 -4 -4 -4 -3 -3 -3 -4 -3 -4 -4 -5 -4 -3 -2 -1 -1 -1 0 -0 -1 -2 -4 -6 -6 -5 -5 -5 -5 -4 -4 -4 -4 -4 -4 -4 -4 -4 -4 -4 -3
-5 -5 -5 -5 -5 -5 -4 -4 -3 -3 -5 -4 -5 -5 -4 -4 -3 -2 -1 -1 -1 -1 -3 -4 -5 -6 -7 -7 -7 -6 -6 -5 -4 -4 -3 -3 -3 -3 -3 -3 -3 -4 -3 -3
-5 -6 -5 -5 -5 -4 -4 -5 -5 -5 -6 -6 -7 -5 -4 -4 -2 -2 -1 -2 -2 -2 -3 -5 -6 -7 -7 -7 -6 -5 -5 -5 -4 -4 -4 -4 -4 -4 -4 -3 -3 -3 -3 -3
-6 -5 -5 -5 -6 -6 -7 -7 -7 -6 -7 -7 -7 -5 -5 -3 -3 -3 -2 -3 -4 -4 -5 -5 -7 -8 -7 -7 -6 -6 -5 -5 -5 -5 -5 -5 -4 -4 -4 -4 -4 -4 -4 -4
-6 -7 -5 -6 -5 -5 -6 -6 -6 -7 -8 -7 -6 -4 -4 -4 -4 -3 -4 -4 -4 -5 -5 -7 -7 -7 -6 -6 -6 -6 -6 -6 -6 -6 -6 -6 -5 -5 -5 -5 -5 -5 -5 -5
-6 -7 -8 -7 -7 -6 -6 -7 -7 -8 -7 -5 -5 -5 -5 -5 -4 -4 -5 -5 -6 -6 -7 -7 -7 -7 -7 -7 -6 -6 -6 -6 -6 -6 -6 -6 -6 -5 -5 -5 -5 -5 -5 -5
Height
1530 1529 1528 1527 1526 1525 1523 1521 1515 1505 1506 1512 1503 1494 1489 1487 1485 1487 1487 1489 1480 1474 1472 1474 1476 1473 1471 1477 1480 1482 1480 1476 1474 1478 1471 1474 1473 1469 1468 1472 1466 1462 1464 1450
1523 1522 1522 1522 1523 1523 1522 1517 1509 1503 1503 1497 1492 1487 1487 1484 1482 1481 1481 1479 1480 1477 1476 1476 1466 1469 1471 1475 1477 1474 1479 1476 1474 1467 1476 1477 1473 1466 1464 1460 1462 1461 1462 1444
1516 1515 1514 1515 1516 1517 1519 1515 1502 1498 1495 1487 1484 1477 1476 1477 1475 1475 1474 1473 1475 1476 1472 1470 1466 1468 1469 1472 1475 1477 1477 1468 1463 1455 1456 1457 1466 1460 1459 1462 1462 1450 1445 1439
1512 1509 1506 1506 1508 1510 1509 1505 1491 1487 1475 1478 1476 1474 1466 1467 1469 1473 1472 1469 1469 1468 1466 1462 1463 1463 1466 1470 1471 1475 1475 1467 1460 1456 1453 1453 1456 1452 1454 1458 1450 1449 1430 1430
1508 1505 1500 1498 1497 1498 1492 1489 1487 1482 1476 1469 1466 1465 1460 1459 1458 1461 1463 1464 1457 1462 1460 1453 1451 1456 1461 1456 1464 1468 1470 1463 1460 1458 1450 1449 1449 1447 1446 1441 1442 1440 1435 1426
1506 1500 1495 1491 1488 1486 1479 1471 1473 1477 1463 1462 1461 1449 1449 1449 1452 1450 1451 1452 1455 1453 1452 1453 1454 1455 1454 1452 1456 1458 1462 1463 1460 1450 1448 1450 1444 1429 1429 1430 1430 1430 1432 1413
1502 1497 1491 1486 1481 1479 1473 1466 1460 1457 1449 1455 1448 1448 1443 1444 1446 1443 1445 1450 1453 1451 1450 1451 1452 1455 1454 1453 1453 1451 1452 1453 1451 1447 1446 1441 1410 1416 1418 1418 1422 1421 1420 1415
1497 1491 1485 1480 1474 1469 1462 1456 1449 1438 1429 1436 1441 1441 1442 1445 1445 1446 1443 1443 1446 1447 1451 1449 1446 1451 1451 1446 1446 1450 1450 1447 1444 1444 1433 1418 1412 1419 1419 1418 1411 1410 1412 1416
1491 1486 1480 1475 1470 1463 1456 1450 1442 1434 1421 1411 1420 1431 1435 1435 1436 1436 1435 1440 1441 1444 1443 1443 1434 1431 1431 1435 1447 1450 1449 1452 1441 1436 1436 1424 1408 1416 1418 1418 1413 1409 1412 1415
1487 1482 1477 1472 1466 1459 1454 1447 1440 1431 1420 1412 1418 1415 1419 1425 1427 1426 1430 1434 1440 1437 1433 1432 1429 1422 1420 1423 1431 1447 1450 1448 1442 1435 1429 1415 1407 1415 1419 1416 1413 1413 1414 1416
1483 1478 1474 1469 1463 1456 1451 1445 1439 1432 1425 1416 1412 1412 1416 1419 1420 1422 1428 1433 1432 1434 1429 1426 1423 1418 1411 1415 1410 1424 1427 1435 1436 1437 1428 1426 1409 1418 1416 1412 1414 1415 1417 1417
1479 1474 1469 1464 1459 1454 1448 1442 1435 1433 1426 1420 1414 1409 1410 1415 1417 1420 1422 1422 1422 1422 1421 1416 1411 1415 1416 1410 1407 1418 1419 1411 1416 1415 1408 1408 1410 1412 1413 1414 1415 1416 1418 1418
1475 1469 1465 1460 1455 1451 1446 1439 1435 1429 1425 1419 1413 1410 1408 1409 1411 1414 1417 1418 1419 1420 1419 1419 1417 1415 1410 1406 1405 1405 1416 1415 1415 1415 1404 1407 1410 1411 1413 1413 1415 1417 1418 1416
1470 1465 1460 1456 1451 1446 1443 1439 1435 1432 1428 1422 1413 1410 1408 1410 1409 1409 1410 1413 1415 1417 1417 1419 1417 1416 1408 1404 1405 1404 1407 1412 1410 1407 1404 1407 1409 1412 1413 1414 1415 1415 1416 1416
1465 1460 1455 1451 1448 1443 1439 1434 1430 1429 1432 1423 1413 1407 1405 1405 1406 1409 1409 1409 1412 1415 1416 1416 1413 1412 1411 1410 1411 1406 1404 1403 1406 1403 1402 1409 1412 1411 1410 1411 1411 1411 1411 1411
1458 1454 1450 1446 1444 1442 1438 1434 1431 1429 1428 1425 1415 1408 1405 1404 1404 1404 1407 1408 1410 1414 1413 1412 1410 1409 1411 1406 1402 1398 1398 1402 1404 1405 1409 1410 1412 1411 1409 1410 1410 1410 1410 1410
1451 1448 1444 1441 1439 1438 1437 1436 1433 1429 1428 1424 1417 1411 1405 1404 1400 1402 1405 1406 1406 1410 1410 1408 1407 1408 1408 1405 1399 1406 1405 1405 1406 1407 1406 1408 1409 1409 1409 1408 1407 1407 1407 1406
1444 1442 1440 1437 1435 1433 1431 1429 1427 1425 1425 1425 1421 1412 1406 1404 1402 1403 1405 1405 1405 1405 1405 1406 1405 1406 1405 1404 1410 1409 1407 1407 1407 1407 1409 1409 1409 1408 1407 1405 1405 1405 1405 1404
1440 1438 1436 1433 1431 1431 1429 1426 1425 1425 1429 1425 1424 1418 1407 1407 1409 1409 1406 1404 1402 1402 1402 1403 1404 1399 1403 1412 1412 1411 1410 1411 1410 1407 1409 1408 1407 1407 1407 1406 1405 1406 1404 1402
1437 1436 1435 1432 1431 1430 1429 1426 1426 1425 1423 1423 1420 1417 1414 1412 1410 1405 1405 1404 1400 1397 1398 1402 1400 1411 1416 1415 1414 1414 1413 1413 1411 1411 1411 1409 1409 1409 1408 1407 1406 1405 1403 1402
1436 1435 1435 1433 1431 1429 1429 1428 1427 1424 1421 1424 1422 1420 1417 1411 1411 1406 1404 1400 1401 1397 1396 1396 1399 1415 1421 1418 1417 1417 1416 1415 1414 1414 1414 1413 1413 1412 1410 1408 1407 1405 1403 1402
1437 1437 1434 1433 1432 1431 1431 1429 1428 1426 1428 1427 1425 1422 1419 1412 1408 1405 1405 1403 1400 1394 1398 1400 1412 1428 1425 1421 1420 1419 1418 1417 1417 1417 1416 1415 1414 1414 1413 1412 1410 1409 1408 1406
1439 1438 1437 1436 1437 1436 1434 1434 1432 1432 1434 1431 1429 1424 1419 1413 1410 1407 1403 1398 1397 1401 1409 1420 1430 1434 1428 1425 1425 1424 1424 1423 1422 1420 1418 1418 1417 1416 1415 1414 1414 1413 1411 1410
1442 1442 1441 1442 1441 1442 1442 1442 1441 1441 1438 1434 1431 1426 1422 1417 1412 1409 1404 1406 1405 1408 1417 1430 1437 1436 1431 1432 1430 1428 1428 1427 1425 1423 1422 1421 1420 1419 1418 1417 1416 1415 1414 1412
1447 1447 1446 1447 1449 1448 1447 1445 1443 1441 1438 1434 1430 1427 1425 1419 1417 1416 1414 1412 1420 1427 1432 1437 1440 1439 1436 1435 1434 1432 1430 1429 1428 1427 1427 1425 1424 1422 1421 1419 1418 1416 1414 1412
1451 1453 1452 1452 1450 1449 1448 1446 1444 1441 1437 1433 1432 1428 1425 1424 1424 1422 1425 1424 1431 1437 1440 1442 1442 1440 1438 1437 1437 1436 1434 1433 1432 1430 1428 1428 1426 1424 1422 1420 1418 1416 1414 1412
1457 1459 1458 1457 1455 1453 1451 1449 1446 1442 1439 1436 1434 1432 1434 1433 1431 1432 1437 1440 1444 1445 1445 1445 1444 1442 1441 1440 1440 1438 1436 1435 1433 1432 1430 1428 1426 1423 1421 1418 1416 1414 1412 1409
Wind_Speed
27 25 24 22 19 22 16 9 6 7 13 8 7 9 6 2 6 8 6 6 11 10 7 7 8 7 6 9 12 7 8 4 7 12 3 5 11 16 16 7 7 6 6 8
30 30 25 21 18 20 17 9 17 12 19 7 11 11 7 7 8 8 8 7 10 6 5 6 12 5 2 12 11 7 7 6 3 3 4 5 8 13 13 15 6 11 7 5
29 28 30 27 20 21 20 7 5 9 15 21 10 15 14 10 9 9 9 5 7 8 9 12 5 7 5 11 11 3 5 6 9 6 3 2 5 13 18 15 8 13 17 15
29 30 29 31 31 25 25 13 10 15 8 12 18 16 9 12 9 9 12 6 15 10 7 11 12 13 6 8 9 6 6 8 13 17 17 13 14 13 16 19 23 14 19 17
29 28 28 30 32 33 39 24 7 14 20 13 13 17 13 20 17 10 7 12 13 16 13 15 10 8 11 9 13 12 7 5 4 6 14 14 17 18 20 20 22 24 23 26
30 30 28 28 29 32 28 37 35 19 16 17 14 17 19 18 14 13 21 13 14 16 19 22 20 9 6 8 10 15 8 6 4 6 2 7 11 21 24 22 21 21 19 23
28 28 29 28 27 26 32 30 30 17 12 16 18 17 21 20 17 15 6 9 11 4 6 4 4 11 10 9 12 12 9 13 6 6 3 8 3 2 2 15 20 19 19 19
28 30 28 27 29 27 30 30 26 16 10 22 23 28 19 17 16 13 15 18 15 9 5 4 5 4 5 11 16 13 11 11 5 5 11 14 16 5 6 7 7 19 18 14
28 27 31 27 27 28 26 23 22 24 8 18 35 23 32 17 15 14 23 16 17 16 6 6 14 10 9 6 6 5 10 8 9 7 6 7 2 3 3 2 4 5 4 3
26 26 26 29 25 27 28 20 23 14 8 12 24 18 19 28 15 10 5 9 8 13 7 9 11 15 10 9 8 7 6 7 14 13 10 7 4 8 5 4 3 5 4 4
26 25 26 27 26 27 29 24 20 19 8 13 8 12 17 9 20 7 6 5 3 5 8 7 8 9 11 10 7 8 11 11 6 9 8 14 9 6 6 4 7 7 4 2
27 26 25 25 27 22 25 27 24 16 6 11 22 14 5 7 9 5 8 4 3 8 5 6 4 4 1 9 12 4 6 4 4 9 6 4 9 5 5 6 5 5 4 2
29 28 26 25 24 23 21 24 24 21 7 11 5 7 13 14 14 15 4 8 5 5 2 0 0 5 4 9 11 8 5 3 3 1 6 7 3 4 6 8 7 7 7 9
31 28 27 24 25 21 19 20 20 16 7 4 5 10 10 13 15 14 19 14 9 7 5 3 2 3 6 5 3 5 2 9 6 7 10 6 6 2 12 8 5 7 9 8
30 30 28 24 20 20 19 22 12 5 5 5 12 22 14 16 20 19 11 11 7 1 1 3 3 2 2 1 2 4 8 6 4 7 11 7 15 20 11 12 13 12 11 14
30 30 27 22 18 18 16 4 3 10 11 6 5 10 6 11 10 8 18 16 12 7 4 3 4 3 3 3 4 6 16 5 11 15 17 14 14 12 7 10 12 11 11 12
29 26 23 19 17 15 10 7 13 24 15 4 5 5 4 14 3 6 7 12 6 6 4 5 2 1 3 2 1 11 11 8 6 2 5 4 3 7 17 17 15 12 11 11
22 19 22 17 15 16 14 12 9 10 6 3 3 4 4 12 5 1 5 4 8 7 3 2 2 3 4 1 7 10 12 7 7 10 9 5 7 8 9 9 8 8 7 7
18 15 15 14 8 4 5 6 11 6 4 2 3 3 4 3 4 4 1 2 2 2 2 2 5 3 2 5 8 9 11 8 10 11 8 9 10 10 12 11 11 10 11 11
11 13 4 3 2 6 9 5 2 3 2 4 3 6 8 16 10 3 2 2 2 2 2 5 2 3 8 15 11 9 8 8 9 7 9 12 13 13 14 13 12 11 12 12
5 3 2 6 9 5 2 2 3 2 1 3 5 5 6 5 4 3 2 2 1 2 3 3 2 3 10 16 11 9 10 11 12 10 11 11 11 12 13 15 16 16 16 15
3 5 8 5 4 2 2 2 3 3 3 8 8 10 10 8 3 4 3 3 0 1 3 2 3 5 17 19 16 15 15 14 14 14 14 14 14 14 14 14 15 16 16 16
4 4 3 4 4 4 5 6 3 4 9 7 14 7 6 6 3 4 2 4 1 1 3 3 4 11 16 19 19 16 15 15 16 17 17 15 15 15 15 15 14 14 13 13
5 5 4 5 3 4 3 5 4 6 10 16 15 8 4 5 3 3 3 4 3 3 3 4 4 11 12 12 14 16 16 17 17 17 16 15 14 13 13 12 12 11 11 10
5 5 4 4 4 3 5 6 6 7 11 13 8 6 4 2 3 3 3 4 4 5 4 2 6 10 12 12 15 16 17 16 16 15 14 14 13 13 12 12 12 12 11 10
5 6 3 8 3 7 9 10 10 14 14 8 3 3 3 3 4 4 6 3 5 3 3 7 7 10 12 12 13 13 14 15 15 15 15 15 14 14 13 13 12 12 13 13
4 3 5 6 4 6 9 12 13 17 9 4 3 4 5 3 3 3 5 4 5 9 8 7 8 9 9 9 10 12 14 14 15 15 16 16 17 17 17 18 18 18 17 17
Wind_Direction
294 296 299 296 301 310 327 309 262 245 185 197 224 236 228 236 211 194 241 282 265 248 192 220 218 232 235 185 169 188 212 259 231 234 202 262 265 229 225 229 216 238 283 264
296 287 288 285 282 295 303 278 271 250 191 230 225 245 253 237 204 201 188 221 231 246 238 235 220 210 160 189 193 194 178 226 236 200 213 211 230 224 243 235 255 249 244 254
323 307 288 281 262 272 278 263 266 210 207 238 257 244 249 235 219 231 209 237 207 207 231 233 260 221 179 193 216 203 182 247 241 254 25 6 209 222 219 223 238 238 241 261
325 324 314 287 272 257 257 234 237 253 223 231 228 233 248 234 225 220 210 213 224 207 237 232 231 237 192 193 196 203 225 248 244 259 270 257 260 258 228 224 235 243 253 251
328 321 328 317 296 261 245 236 224 235 261 258 225 217 228 227 228 196 209 232 241 226 232 232 269 235 211 214 183 193 212 254 274 261 254 255 251 249 249 236 238 245 258 269
329 333 323 324 312 287 276 235 239 244 234 233 232 225 226 234 235 231 238 242 245 248 238 253 276 272 274 251 185 194 188 225 228 262 144 264 260 239 231 237 232 234 242 244
333 323 329 328 319 312 289 261 221 209 233 234 241 244 243 234 225 238 208 209 237 246 245 247 262 242 238 228 221 207 206 209 233 268 248 244 269 149 141 222 240 236 248 261
327 336 329 329 332 329 330 265 256 207 226 222 235 239 238 243 244 242 237 229 231 230 168 237 234 206 232 227 221 214 231 210 228 236 235 271 305 169 183 183 239 229 240 252
330 335 336 332 332 333 333 328 307 252 233 212 216 227 234 236 242 251 254 245 225 198 207 216 235 230 228 185 166 250 222 260 237 210 240 238 68 126 150 104 236 145 184 167
328 329 332 334 332 336 336 341 343 319 295 243 222 216 224 223 230 248 287 172 198 190 204 222 233 237 247 211 191 170 183 208 221 225 245 261 321 145 153 250 70 117 121 118
320 324 322 327 332 332 333 335 341 343 309 312 325 229 223 238 220 197 157 146 212 182 211 212 215 241 225 241 216 175 175 175 194 219 248 250 201 129 216 72 79 91 105 93
324 323 322 321 320 328 327 337 336 335 280 299 324 315 261 229 188 202 194 228 188 194 202 218 214 215 193 223 232 179 208 211 190 204 209 67 185 52 106 33 26 9 1 15
319 320 319 324 326 322 317 317 336 349 330 306 298 313 302 300 274 211 227 210 214 227 263 268 25 239 231 219 229 221 222 157 236 149 234 218 233 250 320 355 349 341 326 325
320 319 318 316 322 320 317 313 315 306 300 292 308 318 288 306 284 259 238 248 245 220 213 212 207 210 213 234 258 220 258 153 204 242 273 246 212 83 338 335 356 343 332 321
310 314 314 310 313 329 315 314 321 294 282 302 299 302 302 274 264 259 230 218 210 341 218 227 227 233 270 26 23 244 202 212 217 248 277 8 303 315 330 339 338 329 321 314
304 307 311 305 301 303 330 296 328 50 8 323 321 317 298 304 279 274 222 230 244 231 204 219 225 230 238 215 220 264 220 224 227 255 282 290 281 299 316 336 323 317 307 295
305 298 308 304 288 296 279 286 293 303 315 281 295 290 293 327 296 168 186 190 180 221 228 219 209 189 213 264 253 20 29 62 91 92 308 293 335 329 317 321 322 319 310 301
304 296 300 296 291 283 287 298 313 320 276 319 303 283 305 12 331 210 183 186 196 208 240 208 198 172 183 241 29 19 17 35 37 24 15 341 332 346 345 341 344 343 349 348
301 302 314 294 279 264 274 289 297 297 229 253 220 288 321 12 322 312 276 233 217 181 220 220 189 160 77 29 9 12 20 16 347 16 26 31 27 16 7 3 357 352 343 338
298 303 305 279 294 307 308 328 333 312 233 224 264 286 276 307 308 300 275 198 263 235 179 150 247 86 57 18 16 8 9 7 21 36 21 25 27 17 14 14 11 8 4 360
319 300 285 304 321 323 336 335 309 320 224 1 329 328 325 282 237 273 288 325 230 236 141 226 94 67 6 2 26 36 50 54 58 61 59 54 44 34 31 30 30 29 25 23
300 298 308 337 2 353 340 353 329 341 37 343 335 322 308 295 270 242 206 261 350 286 121 48 70 18 4 24 41 47 49 51 57 58 55 49 46 45 43 38 33 30 30 34
327 357 349 358 357 34 15 8 20 349 353 347 332 327 317 303 305 283 273 210 227 58 49 67 45 3 17 38 46 42 48 52 56 54 53 52 48 43 40 38 36 31 26 24
12 1 16 6 35 46 15 345 341 332 317 323 322 305 311 313 304 340 297 17 8 59 61 63 41 4 18 27 41 50 45 46 45 43 39 37 35 30 25 22 18 15 14 8
29 1 26 38 355 0 338 337 330 342 320 321 317 286 260 329 319 357 350 20 61 36 42 60 40 31 40 39 41 41 40 37 35 33 29 26 22 19 13 7 2 355 348 342
38 36 353 353 330 8 2 355 348 346 336 328 279 311 331 33 348 14 16 41 38 54 49 53 40 36 39 36 30 33 40 39 34 29 25 18 12 8 3 356 348 344 339 336
37 19 11 347 312 345 350 347 345 339 346 5 335 14 6 303 30 42 15 32 39 35 47 41 30 26 29 37 41 33 24 17 10 5 360 353 348 343 337 334 332 330 328 325